Content
SEND FEEDBACK

Daily
Averages
Monthly
Summary
United States of America

MCDONALD OBSERVATORY, TEXAS


Home > North America > United States > Texas
Elevation: 5760 feet     Latitude: 30 32N     Longitude: 104 08W

WEATHER
 
SELECT A DAY
Number of Records: 452,672;   Date Range: 1/1/95 - 8/12/14
 
SHARE

PRINT THIS DATA

[ ← Previous Day ]
WEATHER ALMANAC - JANUARY 31, 2013
[ Next Day → ]
[ °C ]   °F
Weather ElementAverageHighLow
Temperature40.5 °F60.8 °F (1:55 pm)21.2 °F (7:55 am)
Dewpoint12.1 °F17.6 °F (10:15 am)3.2 °F (12:55 am)
Humidity34.4 %59 % (8:15 am)16 % (2:35 pm)
Barometer30.24 in30.29 in (9:35 am)30.19 in (3:55 pm)
Wind Speed7 mph17.3 mph (3:15 pm)
Wind Gust24.2 mph (3:35 pm)
Weather ElementAverage
Visibility10 mi
Wind DirectionSSW (196.7 °)

Weather ElementTotal
Precipitation---
Heating Degree Days24 (Base 65)
Averaged from 70 records on January 31, 2013
WEATHER CONDITIONS BREAKOUT
WIND DIRECTION BREAKOUT
WEATHER BY HOUR - JANUARY 31, 2013
[ °C ]   °F
Local TimeTemperatureDewpointHumidityBarometerVisibilityWind DirectionWind SpeedGust SpeedPrecipitationEventsConditions
12:35 AM26.6 °F5.0 °F40 %30.23 in10.0 miSSW (200°)3.5 mphClear
12:55 AM26.6 °F3.2 °F37 %30.23 in10.0 miSouth (180°)3.5 mphClear
1:15 AM24.8 °F6.8 °F46 %30.25 in10.0 miSE (140°)6.9 mphClear
1:35 AM24.8 °F5.0 °F43 %30.24 in10.0 miSouth (180°)3.5 mphClear
1:55 AM24.8 °F6.8 °F46 %30.24 in10.0 miSE (140°)5.8 mphClear
2:15 AM23.0 °F6.8 °F50 %30.23 in10.0 miSSE (150°)5.8 mphClear
2:35 AM23.0 °F6.8 °F50 %30.22 in10.0 miESE (120°)4.6 mphClear
2:55 AM23.0 °F8.6 °F54 %30.21 in10.0 miEast (80°)3.5 mphClear
3:15 AM26.6 °F5.0 °F40 %30.21 in10.0 miNNW (340°)5.8 mphClear
3:35 AM24.8 °F8.6 °F50 %30.21 in10.0 miWest (260°)4.6 mphClear
3:55 AM26.6 °F8.6 °F47 %30.21 in10.0 miCalmClear
4:15 AM26.6 °F8.6 °F47 %30.20 in10.0 miWSW (240°)6.9 mphClear
4:35 AM26.6 °F8.6 °F47 %30.21 in10.0 miSSW (210°)8.1 mphClear
4:55 AM28.4 °F8.6 °F43 %30.20 in10.0 miSW (230°)5.8 mphClear
5:15 AM28.4 °F8.6 °F43 %30.21 in10.0 miCalmClear
5:35 AM30.2 °F8.6 °F40 %30.21 in10.0 miNW (310°)4.6 mphClear
5:55 AM26.6 °F6.8 °F43 %30.21 in10.0 miSSE (160°)3.5 mph20.7 mphClear
6:15 AM24.8 °F8.6 °F50 %30.22 in10.0 miSSE (160°)4.6 mphClear
6:35 AM24.8 °F8.6 °F50 %30.22 in10.0 miSouth (170°)4.6 mphClear
6:55 AM24.8 °F10.4 °F54 %30.22 in10.0 miSSE (160°)4.6 mphClear
7:15 AM24.8 °F8.6 °F50 %30.22 in10.0 miSouth (180°)6.9 mphClear
7:35 AM26.6 °F8.6 °F47 %30.23 in10.0 miSSW (210°)8.1 mphClear
7:55 AM21.2 °F6.8 °F54 %30.24 in10.0 miEast (100°)4.6 mphClear
8:15 AM23.0 °F10.4 °F59 %30.25 in10.0 miSE (140°)3.5 mphClear
8:35 AM24.8 °F10.4 °F54 %30.26 in10.0 miCalmClear
8:55 AM28.4 °F12.2 °F51 %30.26 in10.0 miSE (130°)3.5 mphClear
9:15 AM28.4 °F12.2 °F51 %30.27 in10.0 miCalmClear
9:35 AM32.0 °F12.2 °F44 %30.29 in10.0 miEast (100°)3.5 mphClear
9:55 AM35.6 °F12.2 °F38 %30.29 in10.0 miCalmClear
10:15 AM42.8 °F17.6 °F36 %30.28 in10.0 miWNW (300°)10.4 mph16.1 mphClear
10:35 AM46.4 °F15.8 °F29 %30.29 in10.0 miWest (270°)10.4 mphClear
10:55 AM46.4 °F15.8 °F29 %30.29 in10.0 miWest (270°)12.7 mphClear
11:15 AM48.2 °F15.8 °F27 %30.29 in10.0 miWest (270°)13.8 mphClear
11:35 AM51.8 °F17.6 °F26 %30.28 in10.0 miWest (280°)10.4 mph17.3 mphClear
11:55 AM53.6 °F17.6 °F24 %30.28 in10.0 miWSW (250°)8.1 mphClear
12:15 PM53.6 °F17.6 °F24 %30.27 in10.0 miNorth (360°)4.6 mphClear
12:35 PM55.4 °F17.6 °F23 %30.26 in10.0 miWest (270°)6.9 mphClear
12:55 PM57.2 °F17.6 °F21 %30.25 in10.0 miNW (320°)5.8 mphClear
1:15 PM57.2 °F17.6 °F21 %30.24 in10.0 miNNW (340°)6.9 mphClear
1:35 PM57.2 °F15.8 °F20 %30.24 in10.0 miWest (280°)5.8 mphClear
1:55 PM60.8 °F15.8 °F17 %30.23 in10.0 miWSW (250°)3.5 mphClear
2:15 PM60.8 °F15.8 °F17 %30.22 in10.0 miWest (280°)13.8 mph19.6 mphClear
2:35 PM60.8 °F14.0 °F16 %30.21 in10.0 miWest (260°)13.8 mphClear
2:55 PM60.8 °F14.0 °F16 %30.21 in10.0 miWSW (240°)15.0 mph20.7 mphClear
3:15 PM60.8 °F14.0 °F16 %30.21 in10.0 miSW (230°)17.3 mphClear
3:35 PM59.0 °F12.2 °F16 %30.20 in10.0 miWSW (250°)16.1 mph24.2 mphClear
3:55 PM57.2 °F12.2 °F17 %30.19 in10.0 miWSW (250°)16.1 mphClear
4:15 PM59.0 °F12.2 °F16 %30.19 in10.0 miWSW (250°)10.4 mphClear
4:35 PM59.0 °F14.0 °F17 %30.20 in10.0 miWSW (250°)12.7 mphClear
4:55 PM57.2 °F12.2 °F17 %30.20 in10.0 miWSW (250°)9.2 mphClear
5:15 PM57.2 °F12.2 °F17 %30.21 in10.0 miWest (270°)12.7 mphClear
5:35 PM55.4 °F12.2 °F18 %30.22 in10.0 miWest (260°)12.7 mphClear
5:55 PM55.4 °F12.2 °F18 %30.22 in10.0 miWest (260°)11.5 mphClear
6:15 PM53.6 °F12.2 °F19 %30.23 in10.0 miWSW (250°)9.2 mphClear
6:35 PM51.8 °F14.0 °F22 %30.22 in10.0 miWest (270°)10.4 mphClear
6:55 PM51.8 °F15.8 °F24 %30.22 in10.0 miWNW (300°)9.2 mphClear
7:15 PM48.2 °F14.0 °F25 %30.23 in10.0 miSouth (180°)6.9 mphClear
7:35 PM46.4 °F14.0 °F27 %30.24 in10.0 miESE (120°)12.7 mphClear
7:55 PM48.2 °F15.8 °F27 %30.25 in10.0 miSE (130°)11.5 mphClear
8:15 PM46.4 °F14.0 °F27 %30.27 in10.0 miESE (120°)9.2 mphClear
8:35 PM44.6 °F14.0 °F29 %30.28 in10.0 miESE (120°)6.9 mphClear
8:55 PM41.0 °F14.0 °F33 %30.28 in10.0 miENE (70°)8.1 mphClear
9:15 PM41.0 °F14.0 °F33 %30.29 in10.0 miNE (40°)5.8 mphClear
9:35 PM42.8 °F15.8 °F34 %30.29 in10.0 miENE (70°)3.5 mphClear
9:55 PM41.0 °F14.0 °F33 %30.28 in10.0 miCalmClear
10:15 PM37.4 °F14.0 °F38 %30.29 in10.0 miNNW (340°)3.5 mphClear
10:35 PM37.4 °F15.8 °F41 %30.28 in10.0 miCalmClear
10:55 PM37.4 °F15.8 °F41 %30.29 in10.0 miNW (310°)4.6 mphClear
11:15 PM35.6 °F15.8 °F44 %30.28 in10.0 miNW (310°)3.5 mphClear
11:35 PM35.6 °F15.8 °F44 %30.29 in10.0 miNNW (340°)5.8 mphClear
Hourly data recorded from KMRF, located miles away from McDonald Observatory, Texas







STORIES FROM OUR PARTNERS